Location: Casa Rossa
(45.2389°N, 12.2056°E)
Time: 03:39:36
(UTC+00:00)

Meteor 1-28 Rocket - Pass Details

Date: 14 July 2020
Orbit: 505 x 522 km, 97.3° (Epoch: 11 August)

Event Time Altitude Azimuth Distance (km) Brightness Sun altitude
Exits shadow 02:31:15 - 188° (S) 1,840 5.5 -9.9°
Reaches altitude 10° 02:31:33 10° 190° (S) 1,717 5.4 -9.9°
Maximum altitude 02:35:05 42° 262° (W) 740 3.6 -9.4°
Drops below altitude 10° 02:38:39 10° 334° (NNW) 1,739 6.1 -9.0°
Sets 02:40:50 0° 342° (NNW) 2,634 7.1 -8.7°
